Time,TemperatureF,DewpointF,PressureIn,WindDirection,WindDirectionDegrees,WindSpeedMPH,WindSpeedGustMPH,Humidity,HourlyPrecipIn,Conditions,Clouds,dailyrainin,SoftwareType,DateUTC
2013-07-31 00:02:00,66.0,56.0,-100.00,NE,45,2.0,4.0,69,-99.99,,,-99.99,,2013-07-31 05:02:00,
2013-07-31 00:32:00,65.0,56.0,-100.00,NE,55,2.0,6.0,73,-99.99,,,-99.99,,2013-07-31 05:32:00,
2013-07-31 00:43:00,65.0,56.0,-100.00,NE,55,2.0,6.0,73,-99.99,,,-99.99,,2013-07-31 05:43:00,
2013-07-31 00:52:00,65.0,56.0,-100.00,NE,55,2.0,6.0,73,-99.99,,,-99.99,,2013-07-31 05:52:00,
2013-07-31 01:02:00,65.0,56.0,-100.00,NE,55,2.0,6.0,73,-99.99,,,-99.99,,2013-07-31 06:02:00,
2013-07-31 01:32:00,65.0,57.0,-100.00,East,95,2.0,4.0,76,-99.99,,,-99.99,,2013-07-31 06:32:00,
2013-07-31 01:43:00,65.0,57.0,-100.00,East,95,2.0,4.0,76,-99.99,,,-99.99,,2013-07-31 06:43:00,
2013-07-31 01:53:00,65.0,57.0,-100.00,East,95,2.0,4.0,76,-99.99,,,-99.99,,2013-07-31 06:53:00,
2013-07-31 02:02:00,65.0,57.0,-100.00,East,95,2.0,4.0,76,-99.99,,,-99.99,,2013-07-31 07:02:00,
2013-07-31 02:32:00,65.0,57.0,-100.00,NE,40,0.0,4.0,76,-99.99,,,-99.99,,2013-07-31 07:32:00,
2013-07-31 02:43:00,65.0,57.0,-100.00,NE,40,0.0,4.0,76,-99.99,,,-99.99,,2013-07-31 07:43:00,
2013-07-31 02:52:00,65.0,57.0,-100.00,NE,40,0.0,4.0,76,-99.99,,,-99.99,,2013-07-31 07:52:00,
2013-07-31 03:02:00,65.0,57.0,-100.00,NE,40,0.0,4.0,76,-99.99,,,-99.99,,2013-07-31 08:02:00,
2013-07-31 03:33:00,64.0,58.0,-100.00,ENE,75,1.0,3.0,80,-99.99,,,-99.99,,2013-07-31 08:33:00,
2013-07-31 03:42:00,64.0,58.0,-100.00,ENE,75,1.0,3.0,80,-99.99,,,-99.99,,2013-07-31 08:42:00,
2013-07-31 03:53:00,64.0,58.0,-100.00,ENE,75,1.0,3.0,80,-99.99,,,-99.99,,2013-07-31 08:53:00,
2013-07-31 04:02:00,64.0,58.0,-100.00,ENE,75,1.0,3.0,80,-99.99,,,-99.99,,2013-07-31 09:02:00,
2013-07-31 04:33:00,63.0,58.0,-100.00,NE,55,2.0,4.0,83,-99.99,,,-99.99,,2013-07-31 09:33:00,
2013-07-31 04:44:00,63.0,58.0,-100.00,NE,55,2.0,4.0,83,-99.99,,,-99.99,,2013-07-31 09:44:00,
2013-07-31 04:52:00,63.0,58.0,-100.00,NE,55,2.0,4.0,83,-99.99,,,-99.99,,2013-07-31 09:52:00,
2013-07-31 05:02:00,63.0,58.0,-100.00,NE,55,2.0,4.0,83,-99.99,,,-99.99,,2013-07-31 10:02:00,
2013-07-31 05:32:00,63.0,58.0,-100.00,NE,55,2.0,6.0,83,-99.99,,,-99.99,,2013-07-31 10:32:00,
2013-07-31 05:44:00,63.0,58.0,-100.00,NE,55,2.0,6.0,83,-99.99,,,-99.99,,2013-07-31 10:44:00,
2013-07-31 05:52:00,63.0,58.0,-100.00,NE,55,2.0,6.0,83,-99.99,,,-99.99,,2013-07-31 10:52:00,
2013-07-31 06:03:00,63.0,58.0,-100.00,NE,55,2.0,6.0,83,-99.99,,,-99.99,,2013-07-31 11:03:00,
2013-07-31 06:33:00,64.0,59.0,-100.00,NE,45,3.0,6.0,84,-99.99,,,-99.99,,2013-07-31 11:33:00,
2013-07-31 06:43:00,64.0,59.0,-100.00,NE,45,3.0,6.0,84,-99.99,,,-99.99,,2013-07-31 11:43:00,
2013-07-31 06:53:00,64.0,59.0,-100.00,NE,45,3.0,6.0,84,-99.99,,,-99.99,,2013-07-31 11:53:00,
2013-07-31 07:02:00,64.0,59.0,-100.00,NE,45,3.0,6.0,84,-99.99,,,-99.99,,2013-07-31 12:02:00,
2013-07-31 07:33:00,68.0,62.0,-100.00,ENE,60,2.0,6.0,81,-99.99,,,-99.99,,2013-07-31 12:33:00,
2013-07-31 07:43:00,68.0,62.0,-100.00,ENE,60,2.0,6.0,81,-99.99,,,-99.99,,2013-07-31 12:43:00,
2013-07-31 07:53:00,68.0,62.0,-100.00,ENE,60,2.0,6.0,81,-99.99,,,-99.99,,2013-07-31 12:53:00,
2013-07-31 08:02:00,68.0,62.0,-100.00,ENE,60,2.0,6.0,81,-99.99,,,-99.99,,2013-07-31 13:02:00,
2013-07-31 08:33:00,69.0,59.0,-100.00,ESE,105,2.0,7.0,72,-99.99,,,-99.99,,2013-07-31 13:33:00,
2013-07-31 08:43:00,69.0,59.0,-100.00,ESE,105,2.0,7.0,72,-99.99,,,-99.99,,2013-07-31 13:43:00,
2013-07-31 08:53:00,69.0,59.0,-100.00,ESE,105,2.0,7.0,72,-99.99,,,-99.99,,2013-07-31 13:53:00,
2013-07-31 09:02:00,69.0,59.0,-100.00,ESE,105,2.0,7.0,72,-99.99,,,-99.99,,2013-07-31 14:02:00,
2013-07-31 09:34:00,71.0,60.0,-100.00,SE,135,4.0,7.0,68,-99.99,,,-99.99,,2013-07-31 14:34:00,
2013-07-31 09:43:00,71.0,60.0,-100.00,SE,135,4.0,7.0,68,-99.99,,,-99.99,,2013-07-31 14:43:00,
2013-07-31 09:53:00,71.0,60.0,-100.00,SE,135,4.0,7.0,68,-99.99,,,-99.99,,2013-07-31 14:53:00,
2013-07-31 10:02:00,71.0,60.0,-100.00,SE,135,4.0,7.0,68,-99.99,,,-99.99,,2013-07-31 15:02:00,
2013-07-31 10:33:00,73.0,59.0,-100.00,SE,130,2.0,7.0,62,-99.99,,,-99.99,,2013-07-31 15:33:00,
2013-07-31 10:44:00,73.0,59.0,-100.00,SE,130,2.0,7.0,62,-99.99,,,-99.99,,2013-07-31 15:44:00,
2013-07-31 10:53:00,73.0,59.0,-100.00,SE,130,2.0,7.0,62,-99.99,,,-99.99,,2013-07-31 15:53:00,
2013-07-31 11:02:00,73.0,59.0,-100.00,SE,130,2.0,7.0,62,-99.99,,,-99.99,,2013-07-31 16:02:00,
2013-07-31 11:33:00,78.0,57.0,-100.00,SE,135,3.0,7.0,48,-99.99,,,-99.99,,2013-07-31 16:33:00,
2013-07-31 11:44:00,78.0,57.0,-100.00,SE,135,3.0,7.0,48,-99.99,,,-99.99,,2013-07-31 16:44:00,
2013-07-31 11:52:00,78.0,57.0,-100.00,SE,135,3.0,7.0,48,-99.99,,,-99.99,,2013-07-31 16:52:00,
2013-07-31 12:02:00,78.0,57.0,-100.00,SE,135,3.0,7.0,48,-99.99,,,-99.99,,2013-07-31 17:02:00,
2013-07-31 15:32:00,68.0,60.0,-100.00,ESE,105,6.0,11.0,74,-99.99,,,-99.99,,2013-07-31 20:32:00,
2013-07-31 15:43:00,68.0,60.0,-100.00,ESE,105,6.0,11.0,74,-99.99,,,-99.99,,2013-07-31 20:43:00,
2013-07-31 15:53:00,68.0,60.0,-100.00,ESE,105,6.0,11.0,74,-99.99,,,-99.99,,2013-07-31 20:53:00,
2013-07-31 16:02:00,68.0,60.0,-100.00,ESE,105,6.0,11.0,74,-99.99,,,-99.99,,2013-07-31 21:02:00,
2013-07-31 16:32:00,64.0,59.0,-100.00,SE,125,1.0,6.0,84,-99.99,,,-99.99,,2013-07-31 21:32:00,
2013-07-31 16:43:00,64.0,59.0,-100.00,SE,125,1.0,6.0,84,-99.99,,,-99.99,,2013-07-31 21:43:00,
2013-07-31 16:53:00,64.0,59.0,-100.00,SE,125,1.0,6.0,84,-99.99,,,-99.99,,2013-07-31 21:53:00,
2013-07-31 17:02:00,64.0,59.0,-100.00,SE,125,1.0,6.0,84,-99.99,,,-99.99,,2013-07-31 22:02:00,
2013-07-31 17:33:00,70.0,57.0,-100.00,ESE,105,6.0,11.0,63,-99.99,,,-99.99,,2013-07-31 22:33:00,
2013-07-31 17:43:00,70.0,57.0,-100.00,ESE,105,6.0,11.0,63,-99.99,,,-99.99,,2013-07-31 22:43:00,
2013-07-31 17:53:00,70.0,57.0,-100.00,ESE,105,6.0,11.0,63,-99.99,,,-99.99,,2013-07-31 22:53:00,
2013-07-31 18:02:00,70.0,57.0,-100.00,ESE,105,6.0,11.0,63,-99.99,,,-99.99,,2013-07-31 23:02:00,
2013-07-31 18:32:00,73.0,58.0,-100.00,SSE,150,1.0,11.0,59,-99.99,,,-99.99,,2013-07-31 23:32:00,
2013-07-31 18:42:00,73.0,58.0,-100.00,SSE,150,1.0,11.0,59,-99.99,,,-99.99,,2013-07-31 23:42:00,
2013-07-31 18:52:00,73.0,58.0,-100.00,SSE,150,1.0,11.0,59,-99.99,,,-99.99,,2013-07-31 23:52:00,
2013-07-31 19:02:00,73.0,58.0,-100.00,SSE,150,1.0,11.0,59,-99.99,,,-99.99,,2013-08-01 00:02:00,
2013-07-31 19:32:00,72.0,57.0,-100.00,ESE,105,4.0,9.0,61,-99.99,,,-99.99,,2013-08-01 00:32:00,
2013-07-31 19:43:00,72.0,57.0,-100.00,ESE,105,4.0,9.0,61,-99.99,,,-99.99,,2013-08-01 00:43:00,
2013-07-31 19:52:00,72.0,57.0,-100.00,ESE,105,4.0,9.0,61,-99.99,,,-99.99,,2013-08-01 00:52:00,
2013-07-31 20:02:00,72.0,57.0,-100.00,ESE,105,4.0,9.0,61,-99.99,,,-99.99,,2013-08-01 01:02:00,
2013-07-31 20:33:00,70.0,59.0,-100.00,SE,125,4.0,10.0,69,-99.99,,,-99.99,,2013-08-01 01:33:00,
2013-07-31 20:43:00,70.0,59.0,-100.00,SE,125,4.0,10.0,69,-99.99,,,-99.99,,2013-08-01 01:43:00,
2013-07-31 20:53:00,70.0,59.0,-100.00,SE,125,4.0,10.0,69,-99.99,,,-99.99,,2013-08-01 01:53:00,
2013-07-31 21:02:00,70.0,59.0,-100.00,SE,125,4.0,10.0,69,-99.99,,,-99.99,,2013-08-01 02:02:00,
2013-07-31 21:32:00,68.0,61.0,-100.00,SE,145,2.0,4.0,79,-99.99,,,-99.99,,2013-08-01 02:32:00,
2013-07-31 21:43:00,68.0,61.0,-100.00,SE,145,2.0,4.0,79,-99.99,,,-99.99,,2013-08-01 02:43:00,
2013-07-31 21:53:00,68.0,61.0,-100.00,SE,145,2.0,4.0,79,-99.99,,,-99.99,,2013-08-01 02:53:00,
2013-07-31 22:02:00,68.0,61.0,-100.00,SE,145,2.0,4.0,79,-99.99,,,-99.99,,2013-08-01 03:02:00,
2013-07-31 22:10:00,65.0,60.0,-100.00,SE,125,1.0,2.0,83,-99.99,,,-99.99,,2013-08-01 03:10:00,
2013-07-31 22:32:00,65.0,60.0,-100.00,SE,125,1.0,2.0,83,-99.99,,,-99.99,,2013-08-01 03:32:00,
2013-07-31 22:43:00,65.0,60.0,-100.00,SE,125,1.0,2.0,83,-99.99,,,-99.99,,2013-08-01 03:43:00,
2013-07-31 22:53:00,65.0,60.0,-100.00,SE,125,1.0,2.0,83,-99.99,,,-99.99,,2013-08-01 03:53:00,
2013-07-31 23:03:00,65.0,60.0,-100.00,SE,125,1.0,2.0,83,-99.99,,,-99.99,,2013-08-01 04:03:00,
2013-07-31 23:33:00,62.0,58.0,-100.00,SSE,160,0.0,1.0,85,-99.99,,,-99.99,,2013-08-01 04:33:00,
2013-07-31 23:43:00,62.0,58.0,-100.00,SSE,160,0.0,1.0,85,-99.99,,,-99.99,,2013-08-01 04:43:00,
2013-07-31 23:53:00,62.0,58.0,-100.00,SSE,160,0.0,1.0,85,-99.99,,,-99.99,,2013-08-01 04:53:00,